Погода в Русской Бектяшке

Россия / Ульяновская область     53°46′03″N   48°50′53″E
темп.,
°C
ветер,
м/с
пор.,
м/с
влажн.,
%
обл.,
%
осадки,
мм/ч
давл.,
гПа
погр.,
м
17 мая, пн
пн1701:00+20ююв334719 0.0 101615
04:00+18ююз22517 0.0 101717
07:00+20ююз3105952 0.0 1017228
10:00+26ююз47435 0.0 1017331
13:00+30ю453191 0.0 10171148
16:00+30ююв332639 0.0 10172727
19:00+26юв22444 0.0 101619
22:00+21зсз224944 0.0 101712
18 мая, вт
вт1801:00+18св11600 0.0 101711
04:00+17ссв11621 0.0 101711
07:00+20вюв11590 0.0 101752
10:00+24вюв33434 0.0 1017309
13:00+27вюв34334 0.0 1017576
16:00+28всв24305 0.0 1016629
19:00+25св33393 0.0 101650
22:00+20св49503 0.0 1016130
19 мая, ср
ср1901:00+17св48851 0.0 1016136
04:00+16св48795 0.0 1016138
07:00+17всв49730 0.0 1016261
10:00+22в68565 0.0 1016613
13:00+25в78440 0.0 10161107
16:00+26в68400 0.0 10151233
19:00+22в511580 0.0 1015348
22:00+18в514690 0.0 1016331
20 мая, чт
чт2001:00+17вюв414690 0.0 1016398
04:00+15вюв413700 0.0 1016332
07:00+16вюв514680 0.0 1016480
10:00+20юв710572 0.0 1016792
13:00+23юв811390 0.0 10151847
16:00+24вюв811445 0.0 10132156
19:00+20юв4959100 0.0 1012328
22:00+15зсз479059 0.8 1013141
21 мая, пт
пт2101:00+14з1290100 0.3 101253
04:00+14зюз3690100 1.3 1013222
07:00+14юз379037 0.6 1014321
10:00+19юз576515 0.6 10151178
13:00+21юз685047 0.1 10152005
16:00+23юз68445 0.1 10152247
19:00+20юз475819 0.0 1016282
22:00+16ююз3107369 0.0 1017203